sat.trackr.live / text

‹ back to catalog

STARLINK-5932

NORAD 55943 · 2023-037AF

PAYLOAD ACTIVE UNKNOWN

§ Identity

Operator
Country
US
Launch date
2023-03-17
Launch site
AFWTR
Launch vehicle
Mass (kg)
RCS (m²)

Purposes: comms

External: N2YO · Heavens-Above · Gunter

§ Orbital elements

Epoch: 2026-09-20T22:00:03.000096Z

Period
95.67 min
Inclination
69.9996°
Eccentricity
0.0002560
Mean motion
15.05114999 rev/d
Perigee alt
549.4 km
Apogee alt
552.9 km
Semi-major
6,929.3 km
B*
2.0377e-3
RAAN
152.0037°
Arg perigee
278.9161°
Mean anomaly
258.6500°
Rev number
577

§ Raw data

STARLINK-59321 55943U 23037AF  26263.91670139  .00029085  00000+0  20377-2 0  99902 55943  69.9996 152.0037 0002560 278.9161 258.6500 15.05114999  5770

JSON: /api/v1/satellites/55943 · /tle

For live sub-satellite position, see the globe view (requires WebGL).

§ Visibility from observer

Set your observer location to see the next 7 days of passes ≥ 10°. The values pass through the URL so the page stays shareable.

No JS? Fill the form by hand. The geolocation button needs JavaScript.